{"data":{"norad_id":61966,"epoch":"2026-05-24T21:23:11.262048Z","epoch_age_seconds":98655,"freshness":"FRESH","line1":"1 61966U 24210H   26144.89110257  .00015311  00000+0  56457-3 0  9997","line2":"2 61966  43.0001  94.7991 0000535 259.3876 100.6915 15.27590570 86737","mean_motion":15.2759057,"eccentricity":5.35e-5,"inclination_deg":43.0001,"raan_deg":94.7991,"arg_perigee_deg":259.3876,"mean_anomaly_deg":100.6915,"bstar":0.00056457,"rev_number":8673,"period_min":94.266096444939,"perigee_km":482.65037407676,"apogee_km":483.38451760247,"semimajor_km":6861.1544458396,"source":"CELESTRAK","updated_at":"2026-05-25T13:38:19.492576Z"}}